TIME,DELAY(SENSOR),PRES,OXYGEN,RAWTEMP,T(OPTODE),TCPHASE,FLUOR,BETA(BETA700),BETA(BETA412),BETA(BETA440),CDOM,C(CSC),ED(ED412.40),ED(ED444.00),ED(ED489.70),ED(ED554.30),LU(LU411.80),LU(LU443.40),LU(LU489.60),LU(LU554.10),COMP,TILTX,TILTY,CHECK
1350876920,5808,834.2999877929688000,42.5000801086425800,658.0540161132812000,4.6920170783996580,54.6012496948242200,52,100,88,79,80,15189,2147755611,2147421961,2148009444,2147875730,2147641280,2147064347,2148260525,2147197083,1318,4,13,2323
1350880516,5803,887.0499877929688000,45.8279914855957000,666.1757202148438000,4.4244480133056640,54.2099800109863300,53,98,88,79,81,15191,2147755675,2147423241,2148009353,2147875017,2147643273,2147057206,2148259657,2147195840,986,5,13,10044
1350884116,5810,892.8599853515625000,46.8506393432617200,667.7814941406250000,4.3714537620544430,54.0817298889160160,53,99,88,79,81,15192,2147758107,2147420233,2148009700,2147872649,2147644608,2147055277,2148259867,2147198180,102,4,13,40918
1350887716,5809,926.8200073242188000,48.0786094665527340,671.1182250976562000,4.2612509727478030,53.9484596252441400,52,101,87,79,81,15191,2147758985,2147419282,2148010331,2147875392,2147645970,2147055606,2148261421,2147195044,530,5,13,33614
1350891316,5811,935.8400268554688000,47.6968383789062500,671.1287841796875000,4.2609000205993650,54.0097999572753900,52,99,85,79,81,15190,2147755712,2147423049,2148011273,2147872585,2147643940,2147056576,2148264950,2147197641,3567,4,13,54636
1350894916,5808,950.2199707031250000,46.7403297424316400,668.6480712890625000,4.3428440093994140,54.1100082397460940,52,99,85,79,82,15190,2147758765,2147420827,2148005833,2147871652,2147643748,2147064274,2148261513,2147196406,3415,4,13,65155
1350898516,5810,981.8699951171875000,46.9597015380859400,668.9317016601562000,4.3334808349609375,54.0826301574707000,53,98,89,79,81,15185,2147757083,2147422299,2148010267,2147873700,2147644260,2147061348,2148256786,2147198921,566,4,13,31914
1350902116,5812,978.1799926757812000,46.5188217163085940,668.7230834960938000,4.3403677940368650,54.1396293640136700,53,99,88,80,80,15183,2147756836,2147418761,2148010322,2147875364,2147645184,2147066267,2148257920,2147199360,193,4,13,34159
1350905716,5807,971.9699707031250000,46.8341293334960940,669.7147216796875000,4.3076210021972660,54.1102600097656250,52,99,85,79,81,15185,2147759753,2147423204,2148009014,2147876955,2147642249,2147058358,2148262198,2147200082,30,5,13,35293
1350909316,5807,976.4000244140625000,47.6179695129394500,671.1610717773438000,4.2598338127136230,54.0186500549316400,53,98,89,78,82,15186,2147757833,2147420827,2148010029,2147874633,2147644123,2147060790,2148260416,2147198134,278,5,13,46822
1350912916,5807,976.7600097656250000,47.6039695739746100,671.3980712890625000,4.2520008087158200,54.0232009887695300,52,103,85,78,82,15184,2147756937,2147421586,2148007314,2147873371,2147646262,2147060964,2148263341,2147198555,331,4,13,49571
1350916516,5808,986.5800170898438000,46.9313201904296900,670.0252075195312000,4.2973628044128420,54.1021995544433600,52,98,90,78,80,15183,2147758372,2147419657,2148010578,2147871076,2147641133,2147060845,2148262445,2147193609,774,5,13,32992
1350920116,5810,978.1199951171875000,46.5967216491699200,670.7180786132812000,4.2744731903076170,54.1587409973144500,53,97,88,79,80,15184,2147757952,2147419629,2148009636,2147872493,2147643410,2147059913,2148264347,2147199213,534,4,13,17215
1350923716,5810,973.5399780273438000,47.0449295043945300,671.5437011718750000,4.2471899986267090,54.1054382324218750,53,99,85,78,81,15179,2147756169,2147422802,2148008923,2147875382,2147639872,2147061046,2148262610,2147202496,7,5,13,45320
1350927316,5809,972.5900268554688000,47.6185607910156250,672.8640136718750000,4.2035408020019530,54.0409202575683600,52,101,84,79,81,15185,2147757403,2147421558,2148011812,2147872630,2147642697,2147060827,2148268598,2147198957,240,4,13,58197
1350930916,5809,975.3099975585938000,47.4674301147460940,671.9902954101562000,4.2324280738830570,54.0496711730957000,53,102,86,79,81,15180,2147757458,2147419922,2148004882,2147873453,2147641746,2147063341,2148264557,2147197732,111,5,13,17393
1350934516,5809,978.7899780273438000,47.8504981994628900,672.4121704101562000,4.2184791564941410,54.0012817382812500,52,98,86,79,81,15183,2147754770,2147421915,2148009398,2147871762,2147648813,2147065060,2148261586,2147199515,111,4,13,29231
1350938116,5808,987.1500244140625000,47.7511100769043000,671.4859008789062000,4.2491002082824710,54.0008888244628900,52,98,89,80,79,15179,2147754084,2147425206,2148009974,2147873526,2147645476,2147058505,2148261238,2147198976,3413,4,13,26582
1350941716,5810,984.3699951171875000,46.8564491271972660,670.8201293945312000,4.2711029052734375,54.1205101013183600,53,102,88,78,81,15173,2147755108,2147419382,2148010112,2147874002,2147644050,2147060653,2148264100,2147198418,3322,4,13,1194
1350945316,5806,995.3200073242188000,46.5003509521484400,669.7365112304688000,4.3069019317626950,54.1609001159668000,52,99,85,79,83,15173,2147755392,2147422445,2148008466,2147873398,2147644818,2147060608,2148258761,2147196315,3467,4,13,26441
1350948916,5810,991.3800048828125000,45.7852783203125000,669.7687988281250000,4.3058362007141110,54.2589912414550800,52,99,89,79,81,15176,2147755629,2147422994,2148011373,2147874157,2147642852,2147059730,2148264667,2147198326,322,4,13,20163
1350952516,5808,982.3499755859375000,47.1610183715820300,670.9235229492188000,4.2676849365234375,54.0814781188964840,53,98,89,79,81,15177,2147756754,2147421741,2148011446,2147876662,2147641481,2147060854,2148259849,2147201216,73,5,13,2097
1350956116,5811,977.4500122070312000,47.5743789672851560,671.8947753906250000,4.2355837821960450,54.0348892211914060,52,102,87,80,82,15175,2147758134,2147426761,2148010221,2147874240,2147642944,2147062034,2148264292,2147197110,31,4,13,7483
1350959716,5811,970.0300292968750000,47.5117111206054700,672.8427734375000000,4.2042450904846190,54.0550384521484400,52,98,85,78,81,15178,2147760128,2147425024,2148007844,2147873124,2147645165,2147060260,2148259520,2147198985,3183,4,13,60767
1350963316,5807,970.6300048828125000,47.9861106872558600,673.4848022460938000,4.1830120086669920,53.9948997497558600,53,98,92,79,82,15174,2147758674,2147421686,2148008201,2147876946,2147645339,2147058715,2148262482,2147194084,202,4,13,61257
1350966916,5810,971.9000244140625000,48.1789817810058600,673.7437133789062000,4.1744499206542970,53.9688301086425800,52,97,87,78,82,15176,2147758784,2147422592,2148009938,2147876781,2147644891,2147058102,2148262482,2147197622,279,4,13,26731
1350970516,5808,966.6199951171875000,48.3466415405273440,674.4409790039062000,4.1513819694519040,53.9577713012695300,52,99,89,80,81,15174,2147754898,2147425161,2148006738,2147873298,2147644745,2147057536,2148261805,2147196132,351,5,13,34920
1350974116,5809,978.2399902343750000,47.8990707397460940,674.7852783203125000,4.1399898529052730,54.0227088928222660,53,101,90,80,81,15176,2147756681,2147420096,2148010788,2147871753,2147643474,2147056950,2148266541,2147201161,549,4,13,50514
1350977716,5807,987.0399780273438000,47.8916893005371100,672.5275878906250000,4.2146658897399900,53.9976005554199200,53,101,86,80,82,15172,2147756480,2147422061,2148008310,2147875181,2147641197,2147061997,2148265106,2147197714,2855,4,13,43943
1350981316,5809,988.8900146484375000,47.2837715148925800,672.5864868164062000,4.2127189636230470,54.0847511291503900,53,99,85,79,81,15164,2147758427,2147421906,2148010825,2147872246,2147645613,2147063250,2148267218,2147198198,218,5,13,11025
1350984916,5811,989.2199707031250000,47.5718612670898440,672.0811767578125000,4.2294220924377440,54.0346107482910160,52,98,88,79,81,15165,2147756790,2147421229,2148005458,2147873206,2147643958,2147060205,2148259977,2147201691,76,5,13,44604
1350988516,5809,1003.4600219726562000,46.8260917663574200,669.8060302734375000,4.3046069145202640,54.1144981384277340,53,98,89,79,80,15168,2147758747,2147419739,2148011081,2147872868,2147645568,2147056676,2148260772,2147198729,2478,4,13,6252
1350992116,5806,990.9500122070312000,46.1971282958984400,670.1345214843750000,4.2937560081481930,54.2030715942382800,52,99,83,78,81,15166,2147756699,2147424429,2148008192,2147871442,2147645769,2147061613,2148261120,2147200036,2862,4,13,31550
1350995716,5807,987.0000000000000000,46.7643089294433600,671.1655273437500000,4.2596869468688965,54.1390190124511700,52,101,86,79,81,15165,2147760566,2147418121,2148008996,2147872768,2147645714,2147062098,2148260004,2147197385,3494,4,13,40733
1350999316,5810,990.8300170898438000,46.8921585083007800,671.8062133789062000,4.2385139465332030,54.1309700012207000,52,101,87,78,83,15165,2147754514,2147420278,2148006427,2147872438,2147646930,2147053504,2148261549,2147198912,8,5,13,39355
1351002916,5804,988.5800170898438000,46.7120094299316400,670.4121704101562000,4.2845802307128910,54.1367683410644500,53,100,87,85,81,15167,2147759332,2147421714,2148008265,2147873408,2147646317,2147063469,2148260233,2147202066,129,4,13,41028
1351006516,5809,984.6400146484375000,46.6233406066894500,671.2440185546875000,4.2570948600769040,54.1613006591796900,53,98,87,78,82,15146,2147757622,2147421065,2148008960,2147873161,2147644736,2147057645,2148260589,2147201280,3157,4,13,24658
1351010116,5807,974.9600219726562000,47.1652488708496100,673.1422119140625000,4.1943440437316895,54.1024513244628900,52,98,88,79,82,15140,2147756150,2147423350,2148007286,2147873965,2147643501,2147059712,2148262098,2147198720,209,4,13,37095
1351013716,5807,980.0599975585938000,47.9067802429199200,674.8317260742188000,4.1384558677673340,54.0224800109863300,53,101,88,80,81,15146,2147755328,2147426477,2148008896,2147874450,2147644553,2147062665,2148260205,2147198774,46,5,13,38795
1351017316,5808,982.7100219726562000,47.7733116149902340,674.3300781250000000,4.1550521850585940,54.0360183715820300,52,105,88,78,80,15161,2147755693,2147424000,2148007478,2147874752,2147644059,2147058093,2148264365,2147197412,3130,5,13,46597
1351020916,5807,985.4600219726562000,47.5848617553710940,673.4495849609375000,4.1841769218444820,54.0517692565918000,53,98,86,79,81,15157,2147756790,2147423222,2148010304,2147872603,2147644534,2147058285,2148259858,2147199789,200,4,13,15763
1351021256,5803,984.4899902343750000,47.7624092102050800,673.2583007812500000,4.1905021667480470,54.0186195373535160,53,99,86,78,81,15179,2147755136,2147422098,2148011245,2147874240,2147644772,2147064118,2148266258,2147199488,3587,4,13,42486
